Time,TemperatureF,DewpointF,PressureIn,WindDirection,WindDirectionDegrees,WindSpeedMPH,WindSpeedGustMPH,Humidity,HourlyPrecipIn,Conditions,Clouds,dailyrainin,SoftwareType,DateUTC
2013-01-14 00:03:00,55.8,54.0,29.41,SE,129,0.0,7.8,94,0.00,,,-99.99,wx200d/1.3,2013-01-14 05:03:00,
2013-01-14 00:08:00,55.9,54.0,29.41,SSW,201,0.0,7.4,94,0.00,,,-99.99,wx200d/1.3,2013-01-14 05:08:00,
2013-01-14 00:13:00,55.9,54.0,29.41,South,189,0.0,8.7,94,0.00,,,-99.99,wx200d/1.3,2013-01-14 05:13:00,
2013-01-14 00:18:00,55.8,54.0,29.41,SSE,157,0.0,5.8,94,0.00,,,-99.99,wx200d/1.3,2013-01-14 05:18:00,
2013-01-14 00:23:00,55.8,54.0,29.41,South,169,0.0,6.3,94,0.00,,,-99.99,wx200d/1.3,2013-01-14 05:23:00,
2013-01-14 00:28:00,55.8,54.0,29.41,South,170,5.8,7.4,94,0.00,,,-99.99,wx200d/1.3,2013-01-14 05:28:00,
2013-01-14 00:33:00,55.8,54.0,29.41,SSE,160,0.0,11.6,94,0.00,,,-99.99,wx200d/1.3,2013-01-14 05:33:00,
2013-01-14 00:38:00,55.9,54.0,29.41,SE,141,0.0,7.8,94,0.00,,,-99.99,wx200d/1.3,2013-01-14 05:38:00,
2013-01-14 00:43:00,55.9,54.0,29.41,South,190,6.3,11.2,94,0.00,,,-99.99,wx200d/1.3,2013-01-14 05:43:00,
2013-01-14 00:48:00,55.9,54.0,29.41,South,172,0.0,8.3,94,0.00,,,-99.99,wx200d/1.3,2013-01-14 05:48:00,
2013-01-14 00:53:00,56.1,54.0,29.41,SSW,195,5.4,8.7,94,0.00,,,-99.99,wx200d/1.3,2013-01-14 05:53:00,
2013-01-14 00:58:00,56.1,54.0,29.41,South,189,5.4,7.8,94,0.00,,,-99.99,wx200d/1.3,2013-01-14 05:58:00,
2013-01-14 01:03:00,56.3,55.0,29.41,SSW,192,9.2,11.2,94,0.00,,,-99.99,wx200d/1.3,2013-01-14 06:03:00,
2013-01-14 01:08:00,56.3,55.0,29.41,South,185,4.9,9.6,94,0.00,,,-99.99,wx200d/1.3,2013-01-14 06:08:00,
2013-01-14 01:13:00,56.3,55.0,29.41,SSE,160,6.3,11.0,94,0.00,,,-99.99,wx200d/1.3,2013-01-14 06:13:00,
2013-01-14 01:18:00,56.5,55.0,29.41,South,185,4.0,10.1,94,0.00,,,-99.99,wx200d/1.3,2013-01-14 06:18:00,
2013-01-14 01:23:00,56.7,55.0,29.41,South,187,3.1,9.6,94,0.00,,,-99.99,wx200d/1.3,2013-01-14 06:23:00,
2013-01-14 01:28:00,56.7,55.0,29.41,South,177,5.4,8.3,94,0.00,,,-99.99,wx200d/1.3,2013-01-14 06:28:00,
2013-01-14 01:33:00,56.7,55.0,29.41,South,190,6.3,6.9,94,0.00,,,-99.99,wx200d/1.3,2013-01-14 06:33:00,
2013-01-14 01:38:00,56.7,55.0,29.41,South,179,2.7,7.4,94,0.00,,,-99.99,wx200d/1.3,2013-01-14 06:38:00,
2013-01-14 01:44:00,56.8,55.0,29.44,SSW,192,3.6,7.8,94,0.00,,,-99.99,wx200d/1.3,2013-01-14 06:44:00,
2013-01-14 01:49:00,57.0,55.0,29.44,South,169,5.4,6.9,94,0.00,,,-99.99,wx200d/1.3,2013-01-14 06:49:00,
2013-01-14 01:54:00,57.0,55.0,29.44,South,177,3.6,8.3,94,0.00,,,-99.99,wx200d/1.3,2013-01-14 06:54:00,
2013-01-14 01:59:00,57.2,55.0,29.41,SSE,163,0.0,8.3,94,0.00,,,-99.99,wx200d/1.3,2013-01-14 06:59:00,
2013-01-14 02:04:00,57.2,55.0,29.41,SSE,158,3.1,7.8,94,0.00,,,-99.99,wx200d/1.3,2013-01-14 07:04:00,
2013-01-14 02:09:00,57.4,55.0,29.41,SSW,198,4.5,7.8,94,0.00,,,-99.99,wx200d/1.3,2013-01-14 07:09:00,
2013-01-14 02:14:00,57.4,55.0,29.44,SSE,166,5.8,6.7,94,0.00,,,-99.99,wx200d/1.3,2013-01-14 07:14:00,
2013-01-14 02:19:00,57.4,55.0,29.44,South,176,5.4,6.9,94,0.00,,,-99.99,wx200d/1.3,2013-01-14 07:19:00,
2013-01-14 02:24:00,57.4,55.0,29.44,South,178,0.0,7.8,94,0.00,,,-99.99,wx200d/1.3,2013-01-14 07:24:00,
2013-01-14 02:29:00,57.4,55.0,29.44,South,169,5.4,9.6,94,0.00,,,-99.99,wx200d/1.3,2013-01-14 07:29:00,
2013-01-14 02:34:00,57.2,55.0,29.44,SSW,192,4.5,6.3,94,0.00,,,-99.99,wx200d/1.3,2013-01-14 07:34:00,
2013-01-14 02:39:00,57.2,55.0,29.44,SE,145,0.0,6.3,94,0.00,,,-99.99,wx200d/1.3,2013-01-14 07:39:00,
2013-01-14 02:44:00,57.2,55.0,29.44,SSE,153,4.9,6.9,94,0.00,,,-99.99,wx200d/1.3,2013-01-14 07:44:00,
2013-01-14 02:49:00,57.2,55.0,29.44,South,184,3.6,5.4,94,0.00,,,-99.99,wx200d/1.3,2013-01-14 07:49:00,
2013-01-14 02:54:00,57.0,55.0,29.44,South,170,0.0,4.5,94,0.00,,,-99.99,wx200d/1.3,2013-01-14 07:54:00,
2013-01-14 02:59:00,57.0,55.0,29.44,South,187,0.0,2.7,94,0.00,,,-99.99,wx200d/1.3,2013-01-14 07:59:00,
2013-01-14 03:04:00,57.0,55.0,29.44,South,187,0.0,0.0,94,0.00,,,-99.99,wx200d/1.3,2013-01-14 08:04:00,
2013-01-14 03:09:00,57.0,55.0,29.44,South,187,0.0,0.0,94,0.00,,,-99.99,wx200d/1.3,2013-01-14 08:09:00,
2013-01-14 03:14:00,57.0,55.0,29.44,South,187,0.0,0.0,94,0.00,,,-99.99,wx200d/1.3,2013-01-14 08:14:00,
2013-01-14 03:19:00,57.2,55.0,29.44,South,187,0.0,0.0,94,0.00,,,-99.99,wx200d/1.3,2013-01-14 08:19:00,
2013-01-14 03:24:00,57.2,55.0,29.44,South,187,0.0,0.0,94,0.00,,,-99.99,wx200d/1.3,2013-01-14 08:24:00,
2013-01-14 03:29:00,57.2,55.0,29.44,South,188,0.0,0.0,94,0.00,,,-99.99,wx200d/1.3,2013-01-14 08:29:00,
2013-01-14 03:34:00,57.2,55.0,29.44,South,187,0.0,0.0,94,0.00,,,-99.99,wx200d/1.3,2013-01-14 08:34:00,
2013-01-14 03:39:00,57.0,55.0,29.44,South,187,0.0,0.0,94,0.00,,,-99.99,wx200d/1.3,2013-01-14 08:39:00,
2013-01-14 03:45:00,57.0,55.0,29.44,South,187,0.0,0.0,94,0.00,,,-99.99,wx200d/1.3,2013-01-14 08:45:00,
2013-01-14 03:50:00,57.2,55.0,29.44,South,187,0.0,0.0,94,0.00,,,-99.99,wx200d/1.3,2013-01-14 08:50:00,
2013-01-14 03:55:00,57.2,55.0,29.44,ESE,118,0.0,0.0,94,0.00,,,-99.99,wx200d/1.3,2013-01-14 08:55:00,
2013-01-14 04:00:00,57.0,55.0,29.41,ENE,70,0.0,0.0,94,0.00,,,-99.99,wx200d/1.3,2013-01-14 09:00:00,
2013-01-14 04:05:00,56.8,55.0,29.41,North,356,2.7,5.8,94,0.00,,,-99.99,wx200d/1.3,2013-01-14 09:05:00,
2013-01-14 04:10:00,56.5,55.0,29.41,ENE,60,4.9,6.3,94,0.00,,,-99.99,wx200d/1.3,2013-01-14 09:10:00,
2013-01-14 04:15:00,57.2,55.0,29.38,East,89,2.7,6.3,94,0.00,,,-99.99,wx200d/1.3,2013-01-14 09:15:00,
2013-01-14 04:20:00,57.7,55.0,29.38,SE,139,4.9,6.7,94,0.00,,,-99.99,wx200d/1.3,2013-01-14 09:20:00,
2013-01-14 04:25:00,58.1,57.0,29.38,SSW,203,5.4,6.7,94,0.00,,,-99.99,wx200d/1.3,2013-01-14 09:25:00,
2013-01-14 04:30:00,58.8,57.0,29.35,SW,222,4.9,6.9,94,0.00,,,-99.99,wx200d/1.3,2013-01-14 09:30:00,
2013-01-14 04:35:00,59.2,57.0,29.35,South,188,5.8,7.4,94,0.00,,,-99.99,wx200d/1.3,2013-01-14 09:35:00,
2013-01-14 04:40:00,59.2,57.0,29.35,SE,138,4.0,9.2,94,0.00,,,-99.99,wx200d/1.3,2013-01-14 09:40:00,
2013-01-14 04:45:00,58.8,57.0,29.38,ESE,122,5.4,7.8,94,0.00,,,-99.99,wx200d/1.3,2013-01-14 09:45:00,
2013-01-14 04:50:00,58.6,57.0,29.38,ESE,106,2.7,7.8,94,0.00,,,-99.99,wx200d/1.3,2013-01-14 09:50:00,
2013-01-14 04:55:00,58.6,57.0,29.38,SW,236,6.3,8.7,94,0.00,,,-99.99,wx200d/1.3,2013-01-14 09:55:00,
2013-01-14 05:00:00,58.5,57.0,29.38,SSW,194,6.7,7.8,94,0.00,,,-99.99,wx200d/1.3,2013-01-14 10:00:00,
2013-01-14 05:05:00,58.5,57.0,29.38,ESE,112,3.1,5.8,94,0.00,,,-99.99,wx200d/1.3,2013-01-14 10:05:00,
2013-01-14 05:10:00,58.8,57.0,29.38,SW,218,3.1,5.4,94,0.00,,,-99.99,wx200d/1.3,2013-01-14 10:10:00,
2013-01-14 05:16:00,58.8,57.0,29.41,South,187,3.1,4.9,94,0.00,,,-99.99,wx200d/1.3,2013-01-14 10:16:00,
2013-01-14 05:21:00,58.5,57.0,29.41,SSW,213,5.8,8.3,94,0.00,,,-99.99,wx200d/1.3,2013-01-14 10:21:00,
2013-01-14 05:26:00,58.1,57.0,29.41,SW,236,4.0,6.3,94,0.00,,,-99.99,wx200d/1.3,2013-01-14 10:26:00,
2013-01-14 05:31:00,57.9,55.0,29.41,SW,234,3.1,6.3,94,0.00,,,-99.99,wx200d/1.3,2013-01-14 10:31:00,
2013-01-14 05:36:00,57.7,55.0,29.41,WSW,238,3.6,4.9,94,0.00,,,-99.99,wx200d/1.3,2013-01-14 10:36:00,
2013-01-14 05:41:00,57.6,55.0,29.41,WSW,238,3.6,4.9,94,0.00,,,-99.99,wx200d/1.3,2013-01-14 10:41:00,
2013-01-14 05:46:00,57.6,55.0,29.41,SW,214,3.6,5.4,94,0.00,,,-99.99,wx200d/1.3,2013-01-14 10:46:00,
2013-01-14 05:51:00,57.4,55.0,29.41,West,262,5.8,6.3,94,0.00,,,-99.99,wx200d/1.3,2013-01-14 10:51:00,
2013-01-14 05:56:00,57.0,55.0,29.41,WNW,292,4.9,6.7,94,0.00,,,-99.99,wx200d/1.3,2013-01-14 10:56:00,
2013-01-14 06:01:00,56.7,55.0,29.41,WNW,291,4.5,4.9,94,0.00,,,-99.99,wx200d/1.3,2013-01-14 11:01:00,
2013-01-14 06:06:00,56.7,55.0,29.41,West,274,4.0,5.4,94,0.00,,,-99.99,wx200d/1.3,2013-01-14 11:06:00,
2013-01-14 06:11:00,56.5,55.0,29.44,West,272,0.0,5.4,94,0.00,,,-99.99,wx200d/1.3,2013-01-14 11:11:00,
2013-01-14 06:16:00,56.3,55.0,29.44,WSW,258,3.6,5.4,94,0.00,,,-99.99,wx200d/1.3,2013-01-14 11:16:00,
2013-01-14 06:21:00,56.3,55.0,29.44,WSW,250,0.0,4.0,94,0.00,,,-99.99,wx200d/1.3,2013-01-14 11:21:00,
2013-01-14 06:26:00,56.3,55.0,29.44,WSW,249,0.0,0.0,94,0.00,,,-99.99,wx200d/1.3,2013-01-14 11:26:00,
2013-01-14 06:32:00,56.3,55.0,29.44,WSW,250,0.0,0.0,94,0.00,,,-99.99,wx200d/1.3,2013-01-14 11:32:00,
2013-01-14 06:37:00,56.3,55.0,29.44,WSW,249,0.0,0.0,94,0.00,,,-99.99,wx200d/1.3,2013-01-14 11:37:00,
2013-01-14 06:42:00,56.3,55.0,29.44,WSW,250,0.0,0.0,94,0.00,,,-99.99,wx200d/1.3,2013-01-14 11:42:00,
2013-01-14 06:47:00,56.1,54.0,29.44,WSW,250,0.0,0.0,94,0.00,,,-99.99,wx200d/1.3,2013-01-14 11:47:00,
2013-01-14 06:52:00,55.9,54.0,29.44,West,280,0.0,0.0,94,0.00,,,-99.99,wx200d/1.3,2013-01-14 11:52:00,
2013-01-14 06:57:00,55.9,54.0,29.44,West,279,0.0,0.0,94,0.00,,,-99.99,wx200d/1.3,2013-01-14 11:57:00,
2013-01-14 07:02:00,55.9,54.0,29.44,West,270,0.0,0.0,94,0.00,,,-99.99,wx200d/1.3,2013-01-14 12:02:00,
2013-01-14 07:07:00,55.8,54.0,29.44,West,269,0.0,0.0,94,0.00,,,-99.99,wx200d/1.3,2013-01-14 12:07:00,
2013-01-14 07:12:00,55.6,54.0,29.44,West,270,0.0,0.0,94,0.00,,,-99.99,wx200d/1.3,2013-01-14 12:12:00,
2013-01-14 07:17:00,55.6,54.0,29.44,West,271,0.0,3.1,94,0.00,,,-99.99,wx200d/1.3,2013-01-14 12:17:00,
2013-01-14 07:22:00,55.6,54.0,29.44,WNW,288,6.7,6.9,94,0.00,,,-99.99,wx200d/1.3,2013-01-14 12:22:00,
2013-01-14 07:27:00,55.6,54.0,29.50,WNW,294,5.4,7.4,94,0.00,,,-99.99,wx200d/1.3,2013-01-14 12:27:00,
2013-01-14 07:32:00,55.6,54.0,29.50,West,278,4.9,6.7,94,0.00,,,-99.99,wx200d/1.3,2013-01-14 12:32:00,
2013-01-14 07:37:00,55.8,54.0,29.50,NNW,328,4.5,6.3,94,0.00,,,-99.99,wx200d/1.3,2013-01-14 12:37:00,
2013-01-14 07:42:00,55.8,54.0,29.50,WNW,287,7.4,10.1,94,0.00,,,-99.99,wx200d/1.3,2013-01-14 12:42:00,
2013-01-14 07:47:00,55.8,54.0,29.50,West,266,7.4,11.0,94,0.00,,,-99.99,wx200d/1.3,2013-01-14 12:47:00,
2013-01-14 07:52:00,55.6,54.0,29.50,NW,308,2.7,8.3,94,0.00,,,-99.99,wx200d/1.3,2013-01-14 12:52:00,
2013-01-14 07:57:00,55.6,54.0,29.53,NW,304,0.0,3.1,94,0.00,,,-99.99,wx200d/1.3,2013-01-14 12:57:00,
2013-01-14 08:02:00,55.6,54.0,29.53,NW,304,0.0,3.6,94,0.00,,,-99.99,wx200d/1.3,2013-01-14 13:02:00,
2013-01-14 08:07:00,55.6,54.0,29.53,East,96,3.6,4.9,94,0.00,,,-99.99,wx200d/1.3,2013-01-14 13:07:00,
2013-01-14 08:12:00,55.4,54.0,29.53,East,96,0.0,0.0,94,0.00,,,-99.99,wx200d/1.3,2013-01-14 13:12:00,
2013-01-14 08:17:00,55.6,54.0,29.53,East,96,0.0,0.0,94,0.00,,,-99.99,wx200d/1.3,2013-01-14 13:17:00,
2013-01-14 08:22:00,55.8,54.0,29.53,East,96,0.0,0.0,94,0.00,,,-99.99,wx200d/1.3,2013-01-14 13:22:00,
2013-01-14 08:27:00,55.9,54.0,29.53,East,96,0.0,0.0,94,0.00,,,-99.99,wx200d/1.3,2013-01-14 13:27:00,
2013-01-14 08:32:00,55.9,54.0,29.53,East,96,0.0,0.0,94,0.00,,,-99.99,wx200d/1.3,2013-01-14 13:32:00,
2013-01-14 08:37:00,55.9,54.0,29.53,East,96,0.0,0.0,94,0.00,,,-99.99,wx200d/1.3,2013-01-14 13:37:00,
2013-01-14 08:42:00,55.9,54.0,29.56,East,96,0.0,0.0,94,0.00,,,-99.99,wx200d/1.3,2013-01-14 13:42:00,
2013-01-14 08:47:00,55.9,54.0,29.56,East,96,0.0,0.0,94,0.00,,,-99.99,wx200d/1.3,2013-01-14 13:47:00,
2013-01-14 08:52:00,55.9,54.0,29.56,SW,215,4.5,5.4,94,0.00,,,-99.99,wx200d/1.3,2013-01-14 13:52:00,
2013-01-14 08:57:00,55.9,54.0,29.56,SW,215,3.1,4.0,94,0.00,,,-99.99,wx200d/1.3,2013-01-14 13:57:00,
2013-01-14 09:02:00,55.9,54.0,29.56,SW,215,0.0,0.0,94,0.00,,,-99.99,wx200d/1.3,2013-01-14 14:02:00,
2013-01-14 09:07:00,55.9,54.0,29.56,SW,215,0.0,4.0,94,0.00,,,-99.99,wx200d/1.3,2013-01-14 14:07:00,
2013-01-14 09:12:00,56.1,54.0,29.56,SW,215,3.1,4.9,94,0.00,,,-99.99,wx200d/1.3,2013-01-14 14:12:00,
2013-01-14 09:17:00,56.1,54.0,29.56,SW,215,3.1,4.5,94,0.00,,,-99.99,wx200d/1.3,2013-01-14 14:17:00,
2013-01-14 09:22:00,56.1,54.0,29.56,SW,215,4.0,4.9,94,0.00,,,-99.99,wx200d/1.3,2013-01-14 14:22:00,
2013-01-14 09:27:00,56.1,54.0,29.56,SW,215,0.0,4.9,94,0.00,,,-99.99,wx200d/1.3,2013-01-14 14:27:00,
2013-01-14 09:32:00,56.3,55.0,29.56,SW,215,3.6,4.0,94,0.00,,,-99.99,wx200d/1.3,2013-01-14 14:32:00,
2013-01-14 09:38:00,56.3,55.0,29.56,SW,215,2.7,4.9,94,0.00,,,-99.99,wx200d/1.3,2013-01-14 14:38:00,
2013-01-14 09:43:00,56.3,55.0,29.56,SW,216,0.0,0.0,94,0.00,,,-99.99,wx200d/1.3,2013-01-14 14:43:00,
2013-01-14 09:48:00,56.5,55.0,29.56,SW,216,3.1,4.0,94,0.00,,,-99.99,wx200d/1.3,2013-01-14 14:48:00,
2013-01-14 09:53:00,56.5,55.0,29.56,SW,219,4.0,4.5,94,0.00,,,-99.99,wx200d/1.3,2013-01-14 14:53:00,
2013-01-14 09:58:00,56.5,55.0,29.56,WSW,238,5.4,6.3,94,0.00,,,-99.99,wx200d/1.3,2013-01-14 14:58:00,
2013-01-14 10:03:00,56.7,55.0,29.56,WSW,238,4.0,5.8,94,0.00,,,-99.99,wx200d/1.3,2013-01-14 15:03:00,
2013-01-14 10:08:00,56.7,55.0,29.56,WSW,238,0.0,3.1,94,0.00,,,-99.99,wx200d/1.3,2013-01-14 15:08:00,
2013-01-14 10:13:00,56.7,55.0,29.59,WSW,238,4.0,4.9,94,0.00,,,-99.99,wx200d/1.3,2013-01-14 15:13:00,
2013-01-14 10:18:00,56.7,55.0,29.59,WSW,238,3.1,4.5,94,0.00,,,-99.99,wx200d/1.3,2013-01-14 15:18:00,
2013-01-14 10:23:00,56.7,55.0,29.59,WSW,238,0.0,4.5,94,0.00,,,-99.99,wx200d/1.3,2013-01-14 15:23:00,
2013-01-14 10:28:00,56.7,55.0,29.59,WSW,239,0.0,4.0,94,0.00,,,-99.99,wx200d/1.3,2013-01-14 15:28:00,
2013-01-14 10:33:00,56.7,55.0,29.59,WSW,239,0.0,3.6,94,0.00,,,-99.99,wx200d/1.3,2013-01-14 15:33:00,
2013-01-14 10:38:00,56.7,55.0,29.59,WSW,239,3.6,4.0,94,0.00,,,-99.99,wx200d/1.3,2013-01-14 15:38:00,
2013-01-14 10:43:00,56.7,55.0,29.59,WNW,283,5.8,7.8,94,0.00,,,-99.99,wx200d/1.3,2013-01-14 15:43:00,
2013-01-14 10:48:00,56.7,55.0,29.59,WNW,291,8.3,9.6,94,0.00,,,-99.99,wx200d/1.3,2013-01-14 15:48:00,
2013-01-14 10:53:00,56.7,55.0,29.59,West,273,8.7,10.5,94,0.00,,,-99.99,wx200d/1.3,2013-01-14 15:53:00,
2013-01-14 10:58:00,56.7,55.0,29.59,West,272,6.7,11.2,94,0.00,,,-99.99,wx200d/1.3,2013-01-14 15:58:00,
2013-01-14 11:03:00,56.8,55.0,29.59,West,266,7.4,9.2,94,0.00,,,-99.99,wx200d/1.3,2013-01-14 16:03:00,
2013-01-14 11:08:00,56.8,55.0,29.59,WNW,294,6.9,10.1,94,0.00,,,-99.99,wx200d/1.3,2013-01-14 16:08:00,
2013-01-14 11:13:00,56.8,55.0,29.59,West,276,5.8,8.7,94,0.00,,,-99.99,wx200d/1.3,2013-01-14 16:13:00,
2013-01-14 11:18:00,56.8,55.0,29.59,WNW,299,2.7,9.6,94,0.00,,,-99.99,wx200d/1.3,2013-01-14 16:18:00,
2013-01-14 11:23:00,56.7,55.0,29.59,NW,320,6.7,11.0,94,0.00,,,-99.99,wx200d/1.3,2013-01-14 16:23:00,
2013-01-14 11:28:00,56.7,55.0,29.59,WNW,291,5.4,7.8,94,0.00,,,-99.99,wx200d/1.3,2013-01-14 16:28:00,
2013-01-14 11:33:00,56.3,55.0,29.59,NNW,338,3.6,11.0,94,0.00,,,-99.99,wx200d/1.3,2013-01-14 16:33:00,
2013-01-14 11:38:00,56.3,55.0,29.59,NW,324,5.8,10.5,94,0.00,,,-99.99,wx200d/1.3,2013-01-14 16:38:00,
2013-01-14 11:44:00,57.0,55.0,29.59,NNW,339,6.7,8.7,94,0.00,,,-99.99,wx200d/1.3,2013-01-14 16:44:00,
2013-01-14 11:49:00,57.2,55.0,29.59,NNW,329,6.7,11.2,94,0.00,,,-99.99,wx200d/1.3,2013-01-14 16:49:00,
2013-01-14 11:54:00,57.2,55.0,29.59,NNW,341,8.3,11.2,94,0.00,,,-99.99,wx200d/1.3,2013-01-14 16:54:00,
2013-01-14 11:59:00,57.2,55.0,29.59,NNW,337,7.8,10.5,93,0.00,,,-99.99,wx200d/1.3,2013-01-14 16:59:00,
2013-01-14 12:04:00,57.0,55.0,29.59,NNE,14,8.3,11.6,92,0.00,,,-99.99,wx200d/1.3,2013-01-14 17:04:00,
2013-01-14 12:09:00,57.2,55.0,29.59,NW,325,5.4,10.1,91,0.00,,,-99.99,wx200d/1.3,2013-01-14 17:09:00,
2013-01-14 12:14:00,56.8,54.0,29.59,NNW,333,8.7,11.2,89,0.00,,,-99.99,wx200d/1.3,2013-01-14 17:14:00,
2013-01-14 12:19:00,56.5,52.0,29.59,NW,318,8.3,13.0,81,0.00,,,-99.99,wx200d/1.3,2013-01-14 17:19:00,
2013-01-14 12:24:00,56.5,48.0,29.59,NNW,335,7.4,13.0,73,0.00,,,-99.99,wx200d/1.3,2013-01-14 17:24:00,
2013-01-14 12:29:00,57.0,50.0,29.59,NW,310,8.7,11.6,77,0.00,,,-99.99,wx200d/1.3,2013-01-14 17:29:00,
2013-01-14 12:34:00,57.2,50.0,29.59,NW,314,7.8,11.2,79,0.00,,,-99.99,wx200d/1.3,2013-01-14 17:34:00,
2013-01-14 12:39:00,57.0,48.0,29.59,WNW,299,10.1,13.0,73,0.00,,,-99.99,wx200d/1.3,2013-01-14 17:39:00,
2013-01-14 12:44:00,57.0,43.0,29.59,NW,308,10.1,13.4,59,0.00,,,-99.99,wx200d/1.3,2013-01-14 17:44:00,
2013-01-14 12:49:00,57.2,41.0,29.59,NW,304,9.2,13.4,53,0.00,,,-99.99,wx200d/1.3,2013-01-14 17:49:00,
2013-01-14 12:54:00,57.0,37.0,29.59,WNW,302,10.1,13.0,46,0.00,,,-99.99,wx200d/1.3,2013-01-14 17:54:00,
2013-01-14 12:59:00,57.2,36.0,29.59,NW,309,7.8,10.5,45,0.00,,,-99.99,wx200d/1.3,2013-01-14 17:59:00,
2013-01-14 13:04:00,57.2,36.0,29.59,NNW,330,6.7,9.6,45,0.00,,,-99.99,wx200d/1.3,2013-01-14 18:04:00,
2013-01-14 13:09:00,57.0,34.0,29.59,NW,309,7.4,13.0,42,0.00,,,-99.99,wx200d/1.3,2013-01-14 18:09:00,
2013-01-14 13:14:00,57.0,34.0,29.59,WNW,298,9.6,13.9,41,0.00,,,-99.99,wx200d/1.3,2013-01-14 18:14:00,
2013-01-14 13:19:00,56.8,34.0,29.59,NW,322,6.7,13.0,42,0.00,,,-99.99,wx200d/1.3,2013-01-14 18:19:00,
2013-01-14 13:24:00,56.8,34.0,29.59,North,1,9.2,14.3,42,0.00,,,-99.99,wx200d/1.3,2013-01-14 18:24:00,
2013-01-14 13:29:00,56.7,34.0,29.59,NW,315,7.8,14.3,41,0.00,,,-99.99,wx200d/1.3,2013-01-14 18:29:00,
2013-01-14 13:34:00,56.5,34.0,29.59,NW,324,7.8,14.8,40,0.00,,,-99.99,wx200d/1.3,2013-01-14 18:34:00,
2013-01-14 13:39:00,56.5,34.0,29.59,NW,311,9.6,12.5,41,0.00,,,-99.99,wx200d/1.3,2013-01-14 18:39:00,
2013-01-14 13:44:00,56.3,34.0,29.59,North,351,8.3,13.9,41,0.00,,,-99.99,wx200d/1.3,2013-01-14 18:44:00,
2013-01-14 13:49:00,56.1,32.0,29.59,WNW,291,9.2,13.4,41,0.00,,,-99.99,wx200d/1.3,2013-01-14 18:49:00,
2013-01-14 13:54:00,55.9,32.0,29.59,WNW,302,6.7,10.5,42,0.00,,,-99.99,wx200d/1.3,2013-01-14 18:54:00,
2013-01-14 13:59:00,55.9,32.0,29.59,North,356,7.4,10.1,42,0.00,,,-99.99,wx200d/1.3,2013-01-14 18:59:00,
2013-01-14 14:04:00,56.1,32.0,29.59,NNW,340,6.3,9.6,42,0.00,,,-99.99,wx200d/1.3,2013-01-14 19:04:00,
2013-01-14 14:09:00,56.3,34.0,29.59,WNW,302,4.5,9.2,42,0.00,,,-99.99,wx200d/1.3,2013-01-14 19:09:00,
2013-01-14 14:14:00,56.3,34.0,29.59,NW,304,7.4,9.2,41,0.00,,,-99.99,wx200d/1.3,2013-01-14 19:14:00,
2013-01-14 14:19:00,56.5,34.0,29.59,North,351,4.9,8.7,40,0.00,,,-99.99,wx200d/1.3,2013-01-14 19:19:00,
2013-01-14 14:24:00,56.7,34.0,29.59,NW,323,5.8,8.3,40,0.00,,,-99.99,wx200d/1.3,2013-01-14 19:24:00,
2013-01-14 14:29:00,56.8,32.0,29.59,NW,316,4.9,8.7,39,0.00,,,-99.99,wx200d/1.3,2013-01-14 19:29:00,
2013-01-14 14:34:00,56.8,32.0,29.59,NNW,347,4.5,11.0,38,0.00,,,-99.99,wx200d/1.3,2013-01-14 19:34:00,
2013-01-14 14:39:00,56.8,32.0,29.59,NNW,330,7.4,11.0,36,0.00,,,-99.99,wx200d/1.3,2013-01-14 19:39:00,
2013-01-14 14:44:00,56.8,32.0,29.62,North,351,8.7,12.5,35,0.00,,,-99.99,wx200d/1.3,2013-01-14 19:44:00,
2013-01-14 14:49:00,56.8,32.0,29.62,NW,312,9.2,13.0,34,0.00,,,-99.99,wx200d/1.3,2013-01-14 19:49:00,
2013-01-14 14:54:00,56.7,32.0,29.62,NW,318,7.4,12.1,34,0.00,,,-99.99,wx200d/1.3,2013-01-14 19:54:00,
2013-01-14 14:59:00,56.7,32.0,29.62,NNW,331,8.3,13.9,35,0.00,,,-99.99,wx200d/1.3,2013-01-14 19:59:00,
2013-01-14 15:04:00,56.7,32.0,29.62,NNW,342,8.3,12.1,35,0.00,,,-99.99,wx200d/1.3,2013-01-14 20:04:00,
2013-01-14 15:09:00,56.7,32.0,29.62,NNW,329,6.7,14.8,35,0.00,,,-99.99,wx200d/1.3,2013-01-14 20:09:00,
2013-01-14 15:14:00,56.5,32.0,29.62,NNW,336,9.2,13.0,35,0.00,,,-99.99,wx200d/1.3,2013-01-14 20:14:00,
2013-01-14 15:20:00,56.5,32.0,29.62,NW,308,7.8,11.0,35,0.00,,,-99.99,wx200d/1.3,2013-01-14 20:20:00,
2013-01-14 15:25:00,56.5,32.0,29.62,North,356,7.4,11.2,35,0.00,,,-99.99,wx200d/1.3,2013-01-14 20:25:00,
2013-01-14 15:30:00,56.5,32.0,29.62,NNW,341,7.4,12.5,34,0.00,,,-99.99,wx200d/1.3,2013-01-14 20:30:00,
2013-01-14 15:35:00,56.5,32.0,29.62,North,0,6.7,11.2,35,0.00,,,-99.99,wx200d/1.3,2013-01-14 20:35:00,
2013-01-14 15:40:00,56.3,32.0,29.62,NNW,330,7.8,11.6,35,0.00,,,-99.99,wx200d/1.3,2013-01-14 20:40:00,
2013-01-14 15:45:00,56.3,32.0,29.62,NNW,335,6.7,11.2,33,0.00,,,-99.99,wx200d/1.3,2013-01-14 20:45:00,
2013-01-14 15:50:00,56.3,32.0,29.62,NNW,345,6.3,9.2,35,0.00,,,-99.99,wx200d/1.3,2013-01-14 20:50:00,
2013-01-14 15:55:00,55.9,32.0,29.62,NNW,329,6.9,10.5,30,0.00,,,-99.99,wx200d/1.3,2013-01-14 20:55:00,
2013-01-14 16:00:00,55.9,32.0,29.62,NW,326,7.4,11.6,29,0.00,,,-99.99,wx200d/1.3,2013-01-14 21:00:00,
2013-01-14 16:05:00,55.9,32.0,29.62,NNW,335,4.9,10.1,29,0.00,,,-99.99,wx200d/1.3,2013-01-14 21:05:00,
2013-01-14 16:10:00,55.8,32.0,29.62,NNW,333,5.8,10.1,29,0.00,,,-99.99,wx200d/1.3,2013-01-14 21:10:00,
2013-01-14 16:15:00,55.6,32.0,29.62,North,351,6.7,9.6,28,0.00,,,-99.99,wx200d/1.3,2013-01-14 21:15:00,
2013-01-14 16:20:00,55.6,32.0,29.62,NNW,332,4.0,8.3,29,0.00,,,-99.99,wx200d/1.3,2013-01-14 21:20:00,
2013-01-14 16:25:00,55.6,32.0,29.62,NNW,330,6.3,9.6,29,0.00,,,-99.99,wx200d/1.3,2013-01-14 21:25:00,
2013-01-14 16:30:00,55.4,32.0,29.62,North,351,4.9,8.3,29,0.00,,,-99.99,wx200d/1.3,2013-01-14 21:30:00,
2013-01-14 16:35:00,55.4,32.0,29.62,NNW,331,4.9,8.7,29,0.00,,,-99.99,wx200d/1.3,2013-01-14 21:35:00,
2013-01-14 16:40:00,55.2,32.0,29.62,NNW,332,3.1,6.9,29,0.00,,,-99.99,wx200d/1.3,2013-01-14 21:40:00,
2013-01-14 16:45:00,55.2,32.0,29.62,NNW,344,3.1,5.8,29,0.00,,,-99.99,wx200d/1.3,2013-01-14 21:45:00,
2013-01-14 16:50:00,55.0,32.0,29.62,NNW,335,0.0,6.7,30,0.00,,,-99.99,wx200d/1.3,2013-01-14 21:50:00,
2013-01-14 16:55:00,55.0,32.0,29.62,NNW,343,4.5,6.9,29,0.00,,,-99.99,wx200d/1.3,2013-01-14 21:55:00,
2013-01-14 17:00:00,55.0,32.0,29.62,NW,320,0.0,4.5,30,0.00,,,-99.99,wx200d/1.3,2013-01-14 22:00:00,
2013-01-14 17:05:00,54.9,32.0,29.62,WNW,301,0.0,0.0,29,0.00,,,-99.99,wx200d/1.3,2013-01-14 22:05:00,
2013-01-14 17:10:00,54.9,32.0,29.62,WNW,282,4.9,6.3,30,0.00,,,-99.99,wx200d/1.3,2013-01-14 22:10:00,
2013-01-14 17:15:00,54.7,32.0,29.62,NW,304,2.7,7.4,31,0.00,,,-99.99,wx200d/1.3,2013-01-14 22:15:00,
2013-01-14 17:20:00,54.5,32.0,29.62,NW,321,0.0,4.9,31,0.00,,,-99.99,wx200d/1.3,2013-01-14 22:20:00,
2013-01-14 17:25:00,54.5,32.0,29.62,NNW,329,0.0,6.3,30,0.00,,,-99.99,wx200d/1.3,2013-01-14 22:25:00,
2013-01-14 17:30:00,54.7,32.0,29.62,NW,322,0.0,5.4,29,0.00,,,-99.99,wx200d/1.3,2013-01-14 22:30:00,
2013-01-14 17:35:00,54.5,32.0,29.62,WNW,282,2.7,4.9,31,0.00,,,-99.99,wx200d/1.3,2013-01-14 22:35:00,
2013-01-14 17:40:00,54.3,32.0,29.62,WNW,296,6.3,7.4,30,0.00,,,-99.99,wx200d/1.3,2013-01-14 22:40:00,
2013-01-14 17:45:00,54.3,32.0,29.65,WNW,287,7.4,9.2,32,0.00,,,-99.99,wx200d/1.3,2013-01-14 22:45:00,
2013-01-14 17:51:00,54.1,32.0,29.65,WNW,300,6.9,9.2,31,0.00,,,-99.99,wx200d/1.3,2013-01-14 22:51:00,
2013-01-14 17:56:00,54.1,32.0,29.65,WNW,302,6.7,11.0,29,0.00,,,-99.99,wx200d/1.3,2013-01-14 22:56:00,
2013-01-14 18:01:00,54.1,32.0,29.65,WNW,297,0.0,6.7,30,0.00,,,-99.99,wx200d/1.3,2013-01-14 23:01:00,
2013-01-14 18:06:00,54.1,32.0,29.65,NW,305,0.0,3.6,30,0.00,,,-99.99,wx200d/1.3,2013-01-14 23:06:00,
2013-01-14 18:11:00,54.1,32.0,29.65,NW,305,0.0,6.9,30,0.00,,,-99.99,wx200d/1.3,2013-01-14 23:11:00,
2013-01-14 18:16:00,54.1,32.0,29.65,WNW,295,0.0,7.8,29,0.00,,,-99.99,wx200d/1.3,2013-01-14 23:16:00,
2013-01-14 18:21:00,54.0,32.0,29.65,NW,311,0.0,2.7,30,0.00,,,-99.99,wx200d/1.3,2013-01-14 23:21:00,
2013-01-14 18:26:00,54.0,32.0,29.68,West,279,4.9,7.4,30,0.00,,,-99.99,wx200d/1.3,2013-01-14 23:26:00,
2013-01-14 18:31:00,53.8,32.0,29.68,WNW,292,4.5,6.9,30,0.00,,,-99.99,wx200d/1.3,2013-01-14 23:31:00,
2013-01-14 18:36:00,53.8,32.0,29.68,WNW,303,4.9,6.7,30,0.00,,,-99.99,wx200d/1.3,2013-01-14 23:36:00,
2013-01-14 18:41:00,53.6,32.0,29.68,NW,326,4.5,6.9,30,0.00,,,-99.99,wx200d/1.3,2013-01-14 23:41:00,
2013-01-14 18:46:00,53.6,32.0,29.68,NW,324,3.6,5.8,30,0.00,,,-99.99,wx200d/1.3,2013-01-14 23:46:00,
2013-01-14 18:51:00,53.6,32.0,29.68,NW,317,3.1,5.4,29,0.00,,,-99.99,wx200d/1.3,2013-01-14 23:51:00,
2013-01-14 18:56:00,53.6,32.0,29.68,NNW,346,3.6,5.8,29,0.00,,,-99.99,wx200d/1.3,2013-01-14 23:56:00,
2013-01-14 19:01:00,53.6,32.0,29.68,NNW,328,3.1,6.3,29,0.00,,,-99.99,wx200d/1.3,2013-01-15 00:01:00,
2013-01-14 19:06:00,53.6,32.0,29.68,NNW,334,4.0,6.3,29,0.00,,,-99.99,wx200d/1.3,2013-01-15 00:06:00,
2013-01-14 19:11:00,53.6,32.0,29.71,NNW,331,3.6,8.7,28,0.00,,,-99.99,wx200d/1.3,2013-01-15 00:11:00,
2013-01-14 19:16:00,53.6,32.0,29.71,NNW,338,2.7,7.4,28,0.00,,,-99.99,wx200d/1.3,2013-01-15 00:16:00,
2013-01-14 19:21:00,53.4,32.0,29.71,NW,310,4.0,6.9,28,0.00,,,-99.99,wx200d/1.3,2013-01-15 00:21:00,
2013-01-14 19:26:00,53.4,32.0,29.71,NW,309,4.0,6.7,28,0.00,,,-99.99,wx200d/1.3,2013-01-15 00:26:00,
2013-01-14 19:31:00,53.1,32.0,29.71,NNW,343,4.0,7.4,29,0.00,,,-99.99,wx200d/1.3,2013-01-15 00:31:00,
2013-01-14 19:36:00,52.9,32.0,29.71,North,351,0.0,5.8,31,0.00,,,-99.99,wx200d/1.3,2013-01-15 00:36:00,
2013-01-14 19:41:00,52.7,32.0,29.71,NNW,333,4.5,6.7,31,0.00,,,-99.99,wx200d/1.3,2013-01-15 00:41:00,
2013-01-14 19:46:00,52.3,32.0,29.71,North,351,0.0,5.8,34,0.00,,,-99.99,wx200d/1.3,2013-01-15 00:46:00,
2013-01-14 19:51:00,52.0,32.0,29.71,NNW,335,0.0,2.7,35,0.00,,,-99.99,wx200d/1.3,2013-01-15 00:51:00,
2013-01-14 19:56:00,51.8,32.0,29.71,NNW,328,0.0,5.4,36,0.00,,,-99.99,wx200d/1.3,2013-01-15 00:56:00,
2013-01-14 20:01:00,51.6,32.0,29.71,NNW,332,4.9,7.8,36,0.00,,,-99.99,wx200d/1.3,2013-01-15 01:01:00,
2013-01-14 20:06:00,51.4,32.0,29.71,NW,317,0.0,6.7,36,0.00,,,-99.99,wx200d/1.3,2013-01-15 01:06:00,
2013-01-14 20:12:00,51.1,32.0,29.71,North,351,0.0,5.8,37,0.00,,,-99.99,wx200d/1.3,2013-01-15 01:12:00,
2013-01-14 20:17:00,50.9,32.0,29.71,North,351,0.0,0.0,38,0.00,,,-99.99,wx200d/1.3,2013-01-15 01:17:00,
2013-01-14 20:22:00,50.5,32.0,29.71,WNW,292,0.0,3.6,39,0.00,,,-99.99,wx200d/1.3,2013-01-15 01:22:00,
2013-01-14 20:27:00,50.7,32.0,29.71,NNW,330,5.8,12.1,38,0.00,,,-99.99,wx200d/1.3,2013-01-15 01:27:00,
2013-01-14 20:32:00,50.4,32.0,29.71,NNW,343,4.0,8.3,40,0.00,,,-99.99,wx200d/1.3,2013-01-15 01:32:00,
2013-01-14 20:37:00,50.0,32.0,29.71,NNE,26,2.7,7.4,41,0.00,,,-99.99,wx200d/1.3,2013-01-15 01:37:00,
2013-01-14 20:42:00,49.6,32.0,29.71,North,3,0.0,4.9,42,0.00,,,-99.99,wx200d/1.3,2013-01-15 01:42:00,
2013-01-14 20:47:00,49.3,32.0,29.71,North,356,0.0,3.1,42,0.00,,,-99.99,wx200d/1.3,2013-01-15 01:47:00,
2013-01-14 20:52:00,49.1,32.0,29.71,NNW,347,0.0,0.0,42,0.00,,,-99.99,wx200d/1.3,2013-01-15 01:52:00,
2013-01-14 20:57:00,48.9,32.0,29.74,NNW,346,0.0,0.0,43,0.00,,,-99.99,wx200d/1.3,2013-01-15 01:57:00,
2013-01-14 21:02:00,48.9,32.0,29.74,NNW,347,0.0,0.0,43,0.00,,,-99.99,wx200d/1.3,2013-01-15 02:02:00,
2013-01-14 21:07:00,48.7,32.0,29.74,NNW,347,0.0,0.0,43,0.04,,,-99.99,wx200d/1.3,2013-01-15 02:07:00,
2013-01-14 21:12:00,48.4,32.0,29.74,NNW,347,0.0,0.0,43,0.04,,,-99.99,wx200d/1.3,2013-01-15 02:12:00,
2013-01-14 21:17:00,48.4,32.0,29.74,NNW,347,0.0,0.0,44,0.04,,,-99.99,wx200d/1.3,2013-01-15 02:17:00,
2013-01-14 21:22:00,48.2,32.0,29.74,NNW,346,0.0,0.0,44,0.04,,,-99.99,wx200d/1.3,2013-01-15 02:22:00,
2013-01-14 21:27:00,48.0,32.0,29.71,NE,34,0.0,0.0,46,0.04,,,-99.99,wx200d/1.3,2013-01-15 02:27:00,
2013-01-14 21:32:00,47.8,32.0,29.71,NE,34,0.0,0.0,48,0.04,,,-99.99,wx200d/1.3,2013-01-15 02:32:00,
2013-01-14 21:37:00,47.7,32.0,29.71,NE,34,0.0,0.0,48,0.04,,,-99.99,wx200d/1.3,2013-01-15 02:37:00,
2013-01-14 21:42:00,47.7,32.0,29.71,NE,34,0.0,0.0,49,0.04,,,-99.99,wx200d/1.3,2013-01-15 02:42:00,
2013-01-14 21:47:00,47.5,32.0,29.71,NE,34,0.0,0.0,49,0.04,,,-99.99,wx200d/1.3,2013-01-15 02:47:00,
2013-01-14 21:52:00,47.5,32.0,29.71,NW,323,0.0,0.0,50,0.04,,,-99.99,wx200d/1.3,2013-01-15 02:52:00,
2013-01-14 21:57:00,47.5,32.0,29.71,NW,321,0.0,0.0,50,0.04,,,-99.99,wx200d/1.3,2013-01-15 02:57:00,
2013-01-14 22:02:00,47.3,32.0,29.71,NW,321,0.0,0.0,51,0.04,,,-99.99,wx200d/1.3,2013-01-15 03:02:00,
2013-01-14 22:07:00,47.3,32.0,29.71,NNW,339,0.0,0.0,52,0.04,,,-99.99,wx200d/1.3,2013-01-15 03:07:00,
2013-01-14 22:12:00,47.1,32.0,29.71,NNW,336,0.0,0.0,54,0.04,,,-99.99,wx200d/1.3,2013-01-15 03:12:00,
2013-01-14 22:17:00,47.1,32.0,29.71,NW,324,0.0,0.0,56,0.04,,,-99.99,wx200d/1.3,2013-01-15 03:17:00,
2013-01-14 22:22:00,46.9,34.0,29.71,NNW,339,0.0,0.0,59,0.04,,,-99.99,wx200d/1.3,2013-01-15 03:22:00,
2013-01-14 22:27:00,46.8,34.0,29.71,NNW,340,3.1,6.7,62,0.04,,,-99.99,wx200d/1.3,2013-01-15 03:27:00,
2013-01-14 22:32:00,46.8,36.0,29.71,NW,309,2.7,7.4,65,0.04,,,-99.99,wx200d/1.3,2013-01-15 03:32:00,
2013-01-14 22:38:00,46.6,36.0,29.71,NNW,330,5.8,8.3,67,0.04,,,-99.99,wx200d/1.3,2013-01-15 03:38:00,
2013-01-14 22:43:00,46.4,37.0,29.74,WNW,298,5.4,9.2,69,0.04,,,-99.99,wx200d/1.3,2013-01-15 03:43:00,
2013-01-14 22:48:00,46.2,37.0,29.74,NW,322,5.8,8.7,70,0.04,,,-99.99,wx200d/1.3,2013-01-15 03:48:00,
2013-01-14 22:53:00,46.0,37.0,29.74,NNW,330,2.7,7.8,71,0.04,,,-99.99,wx200d/1.3,2013-01-15 03:53:00,
2013-01-14 22:58:00,46.0,37.0,29.74,North,351,3.1,4.9,71,0.04,,,-99.99,wx200d/1.3,2013-01-15 03:58:00,
2013-01-14 23:03:00,46.0,37.0,29.74,NNW,333,0.0,4.9,72,0.04,,,-99.99,wx200d/1.3,2013-01-15 04:03:00,
2013-01-14 23:08:00,45.9,37.0,29.74,North,351,0.0,4.9,72,0.04,,,-99.99,wx200d/1.3,2013-01-15 04:08:00,
2013-01-14 23:13:00,45.9,37.0,29.74,North,1,0.0,0.0,72,0.04,,,-99.99,wx200d/1.3,2013-01-15 04:13:00,
2013-01-14 23:18:00,45.9,37.0,29.74,North,1,0.0,0.0,72,0.04,,,-99.99,wx200d/1.3,2013-01-15 04:18:00,
2013-01-14 23:23:00,45.7,37.0,29.74,North,1,0.0,0.0,72,0.04,,,-99.99,wx200d/1.3,2013-01-15 04:23:00,
2013-01-14 23:28:00,45.7,37.0,29.74,North,1,0.0,0.0,72,0.04,,,-99.99,wx200d/1.3,2013-01-15 04:28:00,
2013-01-14 23:33:00,45.7,37.0,29.74,North,1,0.0,0.0,72,0.04,,,-99.99,wx200d/1.3,2013-01-15 04:33:00,
2013-01-14 23:38:00,45.7,37.0,29.74,North,1,0.0,0.0,72,0.04,,,-99.99,wx200d/1.3,2013-01-15 04:38:00,
2013-01-14 23:44:00,45.7,37.0,29.71,North,1,0.0,0.0,72,0.04,,,-99.99,wx200d/1.3,2013-01-15 04:44:00,
2013-01-14 23:49:00,45.5,37.0,29.71,North,1,0.0,0.0,71,0.04,,,-99.99,wx200d/1.3,2013-01-15 04:49:00,
2013-01-14 23:54:00,45.5,37.0,29.71,North,1,0.0,0.0,71,0.04,,,-99.99,wx200d/1.3,2013-01-15 04:54:00,
2013-01-14 23:59:00,45.5,37.0,29.71,North,1,0.0,0.0,71,0.04,,,-99.99,wx200d/1.3,2013-01-15 04:59:00,